User: anonymous   Login
Location: Elk Horn Observatory
(36.6768°N, 80.8309°W)
Time: 18:37:39
(UTC-05:00)
Language:

Envisat - Orbit

View from above orbital plane
View from above orbital plane
View from above satellite
View from above satellite

Ground track
Ground track

The orbit data is extracted from the following two-line orbital elements,

1 27386U 02009A   19050.68921514 -.00000012  00000-0  96483-5 0  9997
2 27386  98.1607  77.7330 0001180  97.0044  12.4699 14.37941572889098
Epoch (UTC): 19 February 2019 16:32:28
Eccentricity: 0.0001180
inclination: 98.1607°
perigee height: 764 km
apogee height: 766 km
right ascension of ascending node: 77.7330°
argument of perigee: 97.0044°
revolutions per day: 14.37941572
mean anomaly at epoch: 12.4699°
orbit number at epoch: 88909

The dashed part of the orbit path shows where the satellite is in the earth's shadow,  

DLR